User: anonymous   Login
Location: Unspecified
(0.0000°N, 0.0000°E)
Time: 23:19:38
(UTC+02:00)
Language:

CZ-4B DEB - Orbit

View from above orbital plane
View from above orbital plane
View from above satellite
View from above satellite

Ground track
Ground track

The orbit data is extracted from the following two-line orbital elements,

1 33411U 08053D   14297.07863199  .00028711  00000-0  15671-2 0  3179
2 33411 097.5074 314.4639 0010683 164.4922 195.6639 15.14248978327776
Epoch (UTC): 24 October 2014 01:53:13
Eccentricity: 0.0010683
inclination: 97.5074°
perigee height: 516 km
apogee height: 530 km
right ascension of ascending node: 314.4639°
argument of perigee: 164.4922°
revolutions per day: 15.14248978
mean anomaly at epoch: 195.6639°
orbit number at epoch: 32777

The dashed part of the orbit path shows where the satellite is in the earth's shadow,  

DLR